Weather Roundup
Issued by NWS

Home | Current Version | Previous Version | Text Only | Print | Product List | Glossary On
Versions: 1 2 3 4 5 6 7 8 9 10 11 12 13 14 15 16 17 18 19 20 21 22 23 24 25 26 27 28 29 30 31 32 33 34 35 36 37 38 39 40 41 42 43 44 45 46 47 48 49 50
000
NZUS93 KARX 202310
HRRWXR

CURRENT HOURLY OBSERVATIONS ACROSS
MUCH OF THE UPPER MISSISSIPPI VALLEY
NATIONAL WEATHER SERVICE LA CROSSE WI
500 PM CST SAT DEC 20 2014


...SOUTHEAST MINNESOTA...


CITY           SKY/WX    TMP DP  RH WIND       PRES   REMARKS
ROCHESTER      CLOUDY    30  27  88 S12       30.13S WCI  20
ROCHESTER/MAYO CLOUDY    31  28  90 S9        30.13S WCI  23
WINONA         CLOUDY    34  32  93 SE3       30.17S FOG
AUSTIN         CLOUDY    30  28  93 S9        30.12S WCI  22
ALBERT LEA     CLOUDY    30  28  93 S7        30.11S FOG     WCI  23
DODGE CENTER   CLOUDY    30  28  93 S10       30.11F WCI  21
PRESTON        CLOUDY    30  28  95 S7        30.14S FOG     WCI  23
OWATONNA       CLOUDY    30  27  86 S8        30.11S WCI  23
FARIBAULT      CLOUDY    30  28  93 S8        30.12R WCI  23
$$

...ELSEWHERE IN MINNESOTA...


CITY           SKY/WX    TMP DP  RH WIND       PRES   REMARKS
MINNEAPOLIS    CLOUDY    32  26  78 S9        30.12S WCI  24
INTNL FALLS    CLOUDY    30  28  92 S5        30.00S FOG     WCI  25
DULUTH         CLOUDY    30  25  81 S9        30.06S WCI  22
RED WING       CLOUDY    32  28  86 S6        30.14S FOG     WCI  26
REDWOOD FALLS  CLOUDY    32  28  85 S12       30.06S WCI  23
MANKATO        CLOUDY    30  25  80 S8        30.11R WCI  23
WORTHINGTON    CLOUDY    28  28 100 S10       30.05S WCI  19
FAIRMONT       CLOUDY    30  27  86 S12       30.08S WCI  21
$$

...SOUTHWEST WISCONSIN...


CITY           SKY/WX    TMP DP  RH WIND       PRES   REMARKS
LA CROSSE      CLOUDY    33  28  81 S5        30.18S WCI  29
PRAIRIE DU CHI CLOUDY    32  27  83 E3        30.19F HAZE
BOSCOBEL       CLOUDY    33  26  75 S3        30.21R
LONE ROCK      CLOUDY    34  26  72 SE3       30.21S
PLATTEVILLE    CLOUDY    31  27  84 CALM      30.20S
FORT MC COY    CLOUDY    31  27  84 S5        30.19S WCI  26
CAMP DOUGLAS   PTCLDY    30  30 100 SE6       30.18S WCI  24
VIROQUA        CLOUDY    29  29 100 SE7       30.16R WCI  22
WIS DELLS      CLOUDY    29  26  86 SE6       30.19S FOG     WCI  23
$$

...ELSEWHERE IN WISCONSIN...


CITY           SKY/WX    TMP DP  RH WIND       PRES   REMARKS
MILWAUKEE      FLURRIES  31  23  72 W3        30.24S
MADISON        FLURRIES  30  26  85 S7        30.21S WCI  23
GREEN BAY      CLOUDY    30  25  81 CALM      30.23S HAZE
EAU CLAIRE     CLOUDY    32  26  78 S6        30.15S WCI  26
BLACK RVR FLS  CLOUDY    32  27  81 CALM      30.18R HAZE
MEDFORD        CLOUDY    28  25  90 SE3       30.15S FOG
WAUSAU         CLOUDY    29  24  82 S6        30.17R WCI  23
WIS RAPIDS     CLOUDY    30  24  78 SE5       30.20S WCI  25
MARSHFIELD     CLOUDY    30  26  85 SE7       30.16S WCI  23
RICE LAKE      CLOUDY    31  27  85 SE7       30.15S WCI  24
$$

...NORTHEAST IOWA...


CITY           SKY/WX    TMP DP  RH WIND       PRES   REMARKS
DECORAH        CLOUDY    30  30 100 SE8       30.14F FOG     WCI  23
MASON CITY     CLOUDY    30  27  88 SE6       30.14R WCI  24
CHARLES CITY   CLOUDY    30  30 100 S7        30.15R WCI  23
OELWEIN        CLOUDY    32  32 100 S7        30.16S FOG     WCI  26
$$

...ELSEWHERE IN IOWA...


CITY           SKY/WX    TMP DP  RH WIND       PRES   REMARKS
DES MOINES     DRIZZLE   36  33  89 SE8       30.13S FOG     WCI  30
IOWA CITY      CLOUDY    32  31  96 SE6       30.20S FOG     WCI  26
FORT DODGE     CLOUDY    32  28  86 SE7       30.11S WCI  26
$$

...NORTHERN ILLINOIS...


CITY           SKY/WX    TMP DP  RH WIND       PRES   REMARKS
CHICAGO-OHARE  FLURRIES  32  24  72 SW5       30.25R WCI  27
CHICAGO-MIDWAY CLOUDY    34  25  69 S7        30.26R WCI  28
MOLINE         CLOUDY    34  28  79 SE5       30.21R HAZE    WCI  30
ROCKFORD       CLOUDY    31  25  78 SE6       30.25S WCI  25
PEORIA         CLOUDY    35  27  72 SE6       30.24R WCI  30
$$

NOTE: "FAIR" INDICATES FEW OR NO CLOUDS BELOW 12,000 FEET WITH NO
SIGNIFICANT WEATHER AND/OR OBSTRUCTIONS TO VISIBILITY. WIND
SPEEDS ARE IN MILES-PER-HOUR.



USA.gov is the U.S. government's official web portal to all federal, state and local government web resources and services.